Date String (YYYY-MM-DD hh:mm:ss) UTC,Instrument flags,Ambient pressure (hPa),Sample flow (lpm),Bypass flow (lpm),Sample temperature (°C),Ambient temperature (°C),ASC tube jacket temperature (°C),LED temperature (°C),Box temperature (°C),Sample RH (%),Span deviation,Mass concentration (μg/m³),Mass concentration (μg/m³),Mass concentration (μg/m³)
DateTimeUTC,F1_M11,P_M11,Q1_M11,Q2_M11,T1_M11,T2_M11,T3_M11,T4_M11,T5_M11,U1_M11,ZSPAN_M11,X0_M11,X2_M11,X1_M11
2023-02-19 16:00:00,,0821.8,5.04,0.00,21.5,20.0,00.0,30.6,23.0,12.5,0000.0,0006.32,0002.56,0001.50
2023-02-19 16:01:00,,0821.8,4.98,0.00,21.4,19.8,00.0,30.6,22.9,12.7,0000.0,0006.69,0002.55,0001.50
2023-02-19 16:02:00,,0821.8,4.99,0.00,21.4,19.6,00.0,30.6,22.8,12.9,0000.0,0006.90,0002.60,0001.49
2023-02-19 16:03:00,,0821.8,5.00,0.00,21.3,19.5,00.0,30.5,22.7,13.2,0000.0,0006.95,0002.59,0001.48
2023-02-19 16:04:00,,0821.8,5.00,0.00,21.3,19.4,00.0,30.5,22.7,13.1,0000.0,0007.09,0002.57,0001.47
2023-02-19 16:05:00,,0821.8,5.00,0.00,21.2,19.7,00.0,30.4,22.8,13.1,0000.0,0006.96,0002.53,0001.47
2023-02-19 16:06:00,,0821.8,5.04,0.00,21.4,21.3,00.0,30.4,23.2,12.7,0000.0,0006.84,0002.47,0001.46
2023-02-19 16:07:00,,0821.8,5.03,0.00,21.5,22.3,00.0,30.4,23.5,12.8,0000.0,0006.90,0002.47,0001.45
2023-02-19 16:08:00,,0821.8,5.04,0.00,21.6,21.8,00.0,30.4,23.4,12.6,0000.0,0006.85,0002.43,0001.44
2023-02-19 16:09:00,,0821.8,4.98,0.00,21.6,21.1,00.0,30.5,23.2,12.4,0000.0,0006.86,0002.43,0001.44
2023-02-19 16:10:00,,0821.8,5.01,0.00,21.5,20.6,00.0,30.5,23.0,12.5,0000.0,0007.03,0002.47,0001.45
2023-02-19 16:11:00,,0821.8,4.99,0.00,21.4,20.2,00.0,30.5,22.9,12.7,0000.0,0006.84,0002.45,0001.46
2023-02-19 16:12:00,,0821.8,5.02,0.00,21.4,19.9,00.0,30.5,22.8,12.8,0000.0,0007.07,0002.49,0001.47
2023-02-19 16:13:00,,0821.8,5.00,0.00,21.3,19.7,00.0,30.5,22.8,13.3,0000.0,0007.71,0002.47,0001.47
2023-02-19 16:14:00,,0821.8,4.99,0.00,21.3,19.6,00.0,30.4,22.7,13.1,0000.0,0007.68,0002.45,0001.48
2023-02-19 16:15:00,,0821.8,5.00,0.00,21.2,19.5,00.0,30.4,22.7,13.2,0000.0,0007.57,0002.43,0001.49
2023-02-19 16:16:00,,0821.8,5.00,0.00,21.2,19.6,00.0,30.4,22.7,13.4,0000.0,0007.60,0002.50,0001.50
2023-02-19 16:17:00,,0821.8,5.01,0.00,21.3,21.1,00.0,30.3,23.0,13.2,0000.0,0007.73,0002.59,0001.51
2023-02-19 16:18:00,,0821.8,5.01,0.00,21.5,22.3,00.0,30.3,23.4,13.1,0000.0,0007.63,0002.61,0001.51
2023-02-19 16:19:00,,0821.8,4.94,0.00,21.6,22.0,00.0,30.4,23.4,13.4,0000.0,0007.59,0002.61,0001.51
2023-02-19 16:20:00,,0821.8,4.97,0.00,21.5,21.3,00.0,30.4,23.2,13.2,0000.0,0007.67,0002.67,0001.52
2023-02-19 16:21:00,,0821.8,5.00,0.00,21.5,20.7,00.0,30.4,23.0,13.2,0000.0,0007.63,0002.62,0001.52
2023-02-19 16:22:00,,0821.8,5.03,0.00,21.4,20.3,00.0,30.4,22.9,13.2,0000.0,0007.69,0002.61,0001.52
2023-02-19 16:23:00,,0821.8,4.98,0.00,21.4,20.0,00.0,30.4,22.8,13.4,0000.0,0007.17,0002.64,0001.52
2023-02-19 16:24:00,,0821.8,5.00,0.00,21.3,19.7,00.0,30.4,22.8,13.3,0000.0,0006.81,0002.63,0001.51
2023-02-19 16:25:00,,0821.8,5.00,0.00,21.3,19.6,00.0,30.4,22.7,13.4,0000.0,0006.61,0002.58,0001.50
2023-02-19 16:26:00,,0821.8,4.98,0.00,21.2,19.4,00.0,30.4,22.6,13.6,0000.0,0007.48,0002.62,0001.50
2023-02-19 16:27:00,,0821.8,5.02,0.00,21.2,19.9,00.0,30.3,22.7,13.5,0000.0,0007.46,0002.58,0001.49
2023-02-19 16:28:00,,0821.8,4.97,0.00,21.3,21.6,00.0,30.3,23.1,13.5,0000.0,0007.50,0002.51,0001.49
2023-02-19 16:29:00,,0821.7,4.96,0.00,21.5,22.4,00.0,30.3,23.4,13.3,0000.0,0007.69,0002.49,0001.49
2023-02-19 16:30:00,,0821.7,4.99,0.00,21.5,22.1,00.0,30.3,23.3,13.6,0000.0,0007.68,0002.48,0001.49
2023-02-19 16:31:00,,0821.7,5.01,0.00,21.5,21.1,00.0,30.4,23.1,13.5,0000.0,0007.69,0002.44,0001.48
2023-02-19 16:32:00,,0821.7,5.00,0.00,21.4,20.6,00.0,30.4,22.9,13.7,0000.0,0008.28,0002.41,0001.48
2023-02-19 16:33:00,,0821.6,5.01,0.00,21.4,20.2,00.0,30.4,22.9,13.8,0000.0,0008.51,0002.39,0001.47
2023-02-19 16:34:00,,0821.6,4.99,0.00,21.3,20.0,00.0,30.4,22.8,13.6,0000.0,0008.76,0002.40,0001.47
2023-02-19 16:35:00,,0821.6,4.99,0.00,21.3,19.7,00.0,30.4,22.6,13.7,0000.0,0008.66,0002.36,0001.46
2023-02-19 16:36:00,,0821.7,4.99,0.00,21.2,19.5,00.0,30.4,22.6,14.0,0000.0,0008.48,0002.36,0001.45
2023-02-19 16:37:00,,0821.7,5.01,0.00,21.1,19.3,00.0,30.3,22.5,13.9,0000.0,0008.37,0002.39,0001.45
2023-02-19 16:38:00,,0821.6,5.02,0.00,21.1,19.6,00.0,30.3,22.6,13.8,0000.0,0007.77,0002.39,0001.44
2023-02-19 16:39:00,,0821.6,5.04,0.00,21.2,21.3,00.0,30.2,23.0,13.8,0000.0,0007.76,0002.39,0001.43
2023-02-19 16:40:00,,0821.6,5.05,0.00,21.4,22.3,00.0,30.2,23.3,13.8,0000.0,0007.81,0002.45,0001.43
2023-02-19 16:41:00,,0821.6,5.00,0.00,21.5,21.8,00.0,30.3,23.2,13.9,0000.0,0007.63,0002.51,0001.43
2023-02-19 16:42:00,,0821.6,5.01,0.00,21.4,21.1,00.0,30.3,23.1,14.0,0000.0,0007.67,0002.54,0001.42
2023-02-19 16:43:00,,0821.6,5.00,0.00,21.4,20.6,00.0,30.3,22.9,13.8,0000.0,0007.07,0002.55,0001.42
2023-02-19 16:44:00,,0821.6,5.00,0.00,21.3,20.1,00.0,30.4,22.8,13.8,0000.0,0006.33,0002.57,0001.42
2023-02-19 16:45:00,,0821.6,4.97,0.00,21.3,19.8,00.0,30.4,22.7,13.7,0000.0,0005.71,0002.59,0001.40
2023-02-19 16:46:00,,0821.6,4.99,0.00,21.2,19.6,00.0,30.3,22.6,13.6,0000.0,0005.62,0002.59,0001.39
2023-02-19 16:47:00,,0821.6,5.02,0.00,21.2,19.4,00.0,30.3,22.6,13.8,0000.0,0005.53,0002.55,0001.39
2023-02-19 16:48:00,,0821.7,4.99,0.00,21.1,19.3,00.0,30.3,22.5,13.9,0000.0,0005.54,0002.53,0001.39
2023-02-19 16:49:00,,0821.6,4.98,0.00,21.1,19.2,00.0,30.3,22.5,13.9,0000.0,0005.47,0002.51,0001.39
2023-02-19 16:50:00,,0821.6,5.03,0.00,21.1,19.8,00.0,30.2,22.6,13.8,0000.0,0005.34,0002.49,0001.38
2023-02-19 16:51:00,,0821.6,4.97,0.00,21.2,21.4,00.0,30.1,23.0,13.9,0000.0,0005.50,0002.48,0001.37
2023-02-19 16:52:00,,0821.6,5.03,0.00,21.4,22.6,00.0,30.2,23.4,13.7,0000.0,0005.28,0002.39,0001.36
2023-02-19 16:53:00,,0821.6,5.02,0.00,21.5,22.4,00.0,30.2,23.4,13.5,0000.0,0005.14,0002.37,0001.36
2023-02-19 16:54:00,,0821.6,5.02,0.00,21.5,21.6,00.0,30.3,23.2,13.7,0000.0,0005.07,0002.38,0001.38
2023-02-19 16:55:00,,0821.6,5.01,0.00,21.5,21.0,00.0,30.3,23.0,13.8,0000.0,0005.52,0002.40,0001.38
2023-02-19 16:56:00,,0821.6,4.97,0.00,21.4,20.5,00.0,30.3,22.9,13.6,0000.0,0006.84,0002.44,0001.39
2023-02-19 16:57:00,,0821.6,5.03,0.00,21.4,20.1,00.0,30.3,22.8,13.3,0000.0,0007.22,0002.46,0001.39
2023-02-19 16:58:00,,0821.6,5.00,0.00,21.3,19.8,00.0,30.3,22.7,13.4,0000.0,0007.27,0002.46,0001.39
2023-02-19 16:59:00,,0821.6,5.00,0.00,21.2,19.5,00.0,30.3,22.6,13.1,0000.0,0007.22,0002.44,0001.39
